Location: Nitra
(0.0000°N, 18.0833°E)
Time: 19:07:56
(UTC+01:00)

CCE 1 Rocket - Pass Details

Date: 24 January 2021
Orbit: 544 x 3982 km, 28.9° (Epoch: 01 March)

Event Time Altitude Azimuth Distance (km) Brightness Sun altitude
Rises 19:14:35 0° 304° (NW) 4,226 8.3 -17.6°
Reaches altitude 10° 19:18:09 10° 307° (NW) 2,799 7.3 -18.5°
Maximum altitude 19:24:13 65° 28° (NNE) 756 3.7 -19.9°
Enters shadow 19:25:23 45° 90° (E) 876 3.9 -20.2°
